World > North America > United States > New York

Hourly Seneca County, NY Regional Weather

Feedback E-mail the Weather

Latest News

Seneca County, NY Weather Maps

°F °C°F °C
Seneca County Weather Map
UTC Time: 5/28/2022, 23:34
Your Time:

Seneca County, NY Regional Weather

Expires:202205290000;;721613
ASUS41 KBGM 282310
RWRBGM

REGIONAL WEATHER ROUNDUP
NATIONAL WEATHER SERVICE BINGHAMTON NY
700 PM EDT SAT MAY 28 2022

Note: "fair" indicates few or no clouds below 12,000 feet with no
significant weather and/or obstructions to visibility.

* = Station(s) that does not report precipitation, such as rain, 
snow, etc, also no thunder or fog.


NYZ009-015>018-022>025-036-037-044>046-055>057-062-290000
...Central New York...
  
CITY           SKY/WX    TMP DP  RH WIND       PRES   REMARKS
Binghamton     MOSUNNY   62  52  69 NW10      29.88R                  
Cortland       FAIR      64  50  59 N3        29.88R                  
Dansville      PTSUNNY   67  56  67 NW5       29.89R                  
Elmira         PTSUNNY   67  56  67 CALM      29.87R                  
Endicott       PTCLDY    66  54  63 NW3       29.87R                  
Ithaca         PTSUNNY   64  55  72 NW5       29.89R                  
Hamilton       PTSUNNY   63  50  63 NW8       29.87R                  
Monticello     CLOUDY    65  56  72 NW13G18   29.85R                  
Norwich        CLOUDY    64  50  59 NW7G18    29.88R                  
Oneonta        MOSUNNY   63  52  67 NW8       29.87R                  
Penn Yan       MOSUNNY   67  54  63 NW6       29.88R                  
Rome           MOSUNNY   67  52  58 W17       29.84R                  
Seneca Falls   CLEAR     66  50  55 N8        29.88R                  
Sidney         PTSUNNY   66  54  63 NW9       29.86R                  
Skaneateles    FAIR      64  52  63 VRB6G13   29.88R                  
Syracuse       MOSUNNY   67  52  58 NW8       29.86R                  
$$
 

SKY/WX - Weather  TMP - Temperature  DP - Dew Point  RH - Humidity
WIND - Wind Direction/Speed PRES - Barometric Pressure VSB - Visibility
WCI - Wind Chill Index E13G22 Wind - East Wind 13 mph/Gusts of 22 mph

Trending Headlines

Seneca County Radar Loop



Seneca County Quick Facts


National Two Day Weather Forecast


E-mail the Seneca County Weather Forecast

Voice your opinion or tell us about page issues...